Location: ????????
(55.7667°N, 37.4833°E)
Time: 03:31:57
(UTC+00:00)

Cosmos 1766 Rocket - Pass Details

Date: 19 May 2025
Orbit: 598 x 627 km, 82.5° (Epoch: 14 June)

Event Time Altitude Azimuth Distance (km) Brightness Sun altitude
Rises 20:15:24 0° 344° (NNW) 2,913 9.1 -12.8°
Reaches altitude 10° 20:17:43 10° 338° (NNW) 1,998 7.7 -12.9°
Maximum altitude 20:21:55 44° 266° (W) 855 4.4 -13.0°
Enters shadow 20:25:12 15° 199° (SSW) 1,646 5.2 -13.2°
